Weather History for Menomonie, WI

Change the Weather History Date:

Saturday, January 4, 2014

  Actual Average (KEAU) Record (KEAU)
Temperature  
Mean Temperature 18 °F 15 °F  
Max Temperature 32 °F 23 °F 44 °F (2007)
Min Temperature 3 °F 6 °F -30 °F (1919)
Degree Days  
Heating Degree Days 48 50  
Month to date heating degree days 200  
Since 1 July heating degree days 3376  
Cooling Degree Days 0 0  
Month to date cooling degree days 0  
Year to date cooling degree days 0  
Moisture  
Dew Point 10 °F    
Average Humidity 69    
Maximum Humidity 89    
Minimum Humidity 55    
Precipitation  
Precipitation 0.00 in 0.03 in 0.68 in (1922)
Month to date precipitation 0.11  
Year to date precipitation 0.11  
Snow  
Snow 0.00 in 0.40 in 6.80 in (1922)
Month to date snowfall 1.5  
Since 1 July snowfall 17.3  
Snow Depth -    
Sea Level Pressure  
Sea Level Pressure 29.83 in    
Wind  
Wind Speed 13 mph (West)    
Max Wind Speed 23 mph    
Max Gust Speed 30 mph    
Visibility 9 miles    
Events Snow    
T = Trace of Precipitation, MM = Missing Value Source: NWS Daily Summary

Daily Weather History Graph

Daily Weather History Graph

Search for Another Location

Airport:

Trip Planner

Search our weather history database for the weather conditions in past years. The results will help you decide how hot, cold, wet, or windy it might be!

Date:

Astronomy

Jan. 04, 2014 Rise Set
Actual Time 7:45 AM CST 4:39 PM CST
Civil Twilight 7:11 AM CST 5:13 PM CST
Nautical Twilight 6:35 AM CST 5:50 PM CST
Astronomical Twilight 5:59 AM CST 6:25 PM CST
Moon 9:40 AM CST (1/4) 9:12 PM CST (1/4)
Length of Visible Light 10h 01m
Length of Day
8h 54m
Waxing Crescent, 15% of the Moon is Illuminated
Jan 4
Waxing Crescent
Jan 7
First Quarter
Jan 15
Full
Jan 23
Last Quarter
Jan 30
New

Hourly Weather History & Observations

Time (CST) Temp. Windchill Dew Point Humidity Pressure Visibility Wind Dir Wind Speed Gust Speed Precip Events Conditions
12:15 AM 24.6 °F 12.2 °F 17.1 °F 73% 29.49 in 10.0 mi South 15.0 mph - N/A   Overcast
12:35 AM 24.6 °F 12.2 °F 17.4 °F 74% 29.48 in 7.0 mi South 15.0 mph 20.7 mph N/A   Overcast
12:55 AM 24.6 °F 12.2 °F 18.1 °F 76% 29.47 in 4.0 mi South 15.0 mph 23.0 mph N/A Snow Light Snow
1:15 AM 24.8 °F 13.4 °F 19.0 °F 79% 29.47 in 2.5 mi South 12.7 mph - N/A Snow Light Snow
1:35 AM 24.6 °F 13.8 °F 20.3 °F 84% 29.46 in 2.0 mi South 11.5 mph - N/A Snow Light Snow
1:55 AM 24.6 °F 13.2 °F 21.2 °F 87% 29.45 in 2.5 mi SSE 12.7 mph - N/A Snow Light Snow
2:15 AM 25.3 °F 16.7 °F 21.9 °F 87% 29.46 in 5.0 mi South 8.1 mph 18.4 mph N/A Snow Light Snow
2:35 AM 25.7 °F 19.0 °F 22.3 °F 87% 29.47 in 7.0 mi SSW 5.8 mph - N/A Snow Light Snow
2:55 AM 26.6 °F 17.5 °F 22.8 °F 86% 29.46 in 10.0 mi South 9.2 mph - N/A   Overcast
3:15 AM 27.3 °F 17.7 °F 23.4 °F 85% 29.47 in 10.0 mi SSW 10.4 mph - N/A Snow Light Snow
3:35 AM 27.9 °F 16.3 °F 23.9 °F 85% 29.48 in 7.0 mi SSW 15.0 mph - N/A Snow Light Snow
3:55 AM 28.8 °F 19.5 °F 24.3 °F 83% 29.47 in 10.0 mi SSW 10.4 mph 17.3 mph N/A   Overcast
4:15 AM 29.3 °F 20.2 °F 24.6 °F 83% 29.47 in 10.0 mi SSW 10.4 mph - N/A   Overcast
4:35 AM 30.0 °F 21.7 °F 25.3 °F 83% 29.47 in 10.0 mi SSW 9.2 mph - N/A   Overcast
4:55 AM 30.6 °F 21.8 °F 25.7 °F 82% 29.48 in 10.0 mi SSW 10.4 mph - N/A   Overcast
5:15 AM 30.7 °F 22.6 °F 25.7 °F 82% 29.50 in 10.0 mi SW 9.2 mph - N/A   Overcast
5:35 AM 31.1 °F 23.7 °F 26.6 °F 83% 29.51 in 10.0 mi SW 8.1 mph - N/A   Overcast
5:55 AM 31.8 °F 22.8 °F 27.5 °F 84% 29.53 in 7.0 mi SW 11.5 mph - N/A   Overcast
6:15 AM 32.0 °F 24.2 °F 28.4 °F 87% 29.54 in 7.0 mi WSW 9.2 mph - N/A   Overcast
6:35 AM 32.0 °F 22.5 °F 29.1 °F 89% 29.55 in 10.0 mi West 12.7 mph - N/A   Overcast
6:55 AM 32.0 °F 20.5 °F 27.1 °F 82% 29.59 in 7.0 mi WNW 18.4 mph 25.3 mph N/A   Overcast
7:15 AM 30.6 °F 17.6 °F 23.9 °F 76% 29.60 in 5.0 mi NW 21.9 mph 26.5 mph N/A   Haze
7:35 AM 29.3 °F 15.6 °F 22.5 °F 76% 29.63 in 7.0 mi NW 23.0 mph - N/A   Overcast
7:55 AM 27.9 °F 16.3 °F 21.2 °F 76% 29.67 in 5.0 mi NW 15.0 mph 29.9 mph N/A   Haze
8:15 AM 27.1 °F 14.1 °F 20.7 °F 77% 29.68 in 10.0 mi WNW 18.4 mph - N/A   Overcast
8:35 AM 25.9 °F 12.9 °F 18.7 °F 74% 29.71 in 5.0 mi WNW 17.3 mph 26.5 mph N/A   Haze
8:55 AM 24.8 °F 11.1 °F 17.1 °F 72% 29.72 in 5.0 mi WNW 18.4 mph 25.3 mph N/A   Haze
9:15 AM 23.7 °F 11.5 °F 15.6 °F 71% 29.77 in 7.0 mi WNW 13.8 mph 24.2 mph N/A   Overcast
9:35 AM 22.6 °F 8.3 °F 14.4 °F 71% 29.78 in 3.0 mi NW 18.4 mph 27.6 mph N/A   Haze
9:55 AM 20.8 °F 7.3 °F 12.0 °F 69% 29.80 in 3.0 mi WNW 15.0 mph - N/A   Haze
10:15 AM 19.4 °F 6.0 °F 9.3 °F 65% 29.83 in 10.0 mi WNW 13.8 mph - N/A   Scattered Clouds
10:35 AM 17.6 °F 0.5 °F 7.3 °F 64% 29.83 in 3.0 mi NW 21.9 mph 27.6 mph N/A   Haze
10:55 AM 16.9 °F 0.3 °F 6.8 °F 65% 29.86 in 5.0 mi NW 19.6 mph 24.2 mph N/A   Haze
11:15 AM 16.3 °F 1.6 °F 5.7 °F 63% 29.88 in 10.0 mi WNW 15.0 mph 21.9 mph N/A   Clear
11:35 AM 16.7 °F 1.5 °F 5.7 °F 62% 29.88 in 10.0 mi NW 16.1 mph - N/A   Clear
11:55 AM 17.2 °F 1.7 °F 5.9 °F 61% 29.88 in 10.0 mi NW 17.3 mph 23.0 mph N/A   Clear
12:15 PM 17.1 °F 3.0 °F 5.9 °F 62% 29.88 in 10.0 mi NW 13.8 mph 19.6 mph N/A   Clear
12:35 PM 17.4 °F 4.1 °F 6.1 °F 61% 29.88 in 10.0 mi NW 12.7 mph 19.6 mph N/A   Clear
12:55 PM 17.6 °F 3.2 °F 5.2 °F 58% 29.88 in 10.0 mi WNW 15.0 mph 18.4 mph N/A   Clear
1:15 PM 17.6 °F 4.3 °F 5.0 °F 58% 29.89 in 10.0 mi WNW 12.7 mph - N/A   Clear
1:35 PM 17.6 °F 3.2 °F 4.8 °F 57% 29.89 in 10.0 mi WNW 15.0 mph 18.4 mph N/A   Clear
1:55 PM 17.6 °F 5.0 °F 4.6 °F 57% 29.90 in 10.0 mi WNW 11.5 mph - N/A   Clear
2:15 PM 17.6 °F 3.2 °F 4.6 °F 57% 29.93 in 10.0 mi WNW 15.0 mph - N/A   Clear
2:35 PM 17.1 °F 2.5 °F 3.9 °F 56% 29.94 in 10.0 mi WNW 15.0 mph - N/A   Clear
2:55 PM 17.1 °F 5.0 °F 3.4 °F 55% 29.95 in 10.0 mi WNW 10.4 mph 19.6 mph N/A   Clear
3:15 PM 16.7 °F 5.3 °F 3.4 °F 56% 29.97 in 10.0 mi WNW 9.2 mph - N/A   Clear
3:35 PM 16.5 °F 6.0 °F 3.0 °F 55% 29.99 in 10.0 mi West 8.1 mph - N/A   Clear
3:55 PM 16.0 °F 0.1 °F 3.7 °F 59% 30.01 in 10.0 mi West 17.3 mph 21.9 mph N/A   Clear
4:15 PM 14.7 °F 0.1 °F 3.2 °F 60% 30.02 in 10.0 mi West 13.8 mph 18.4 mph N/A   Clear
4:35 PM 13.8 °F -1.1 °F 2.1 °F 60% 30.03 in 10.0 mi West 13.8 mph - N/A   Clear
4:55 PM 12.9 °F -1.6 °F 1.8 °F 61% 30.04 in 10.0 mi WNW 12.7 mph - N/A   Clear
5:15 PM 12.2 °F -1.0 °F 0.7 °F 60% 30.04 in 10.0 mi WNW 10.4 mph - N/A   Clear
5:35 PM 11.8 °F -1.5 °F -0.0 °F 59% 30.05 in 10.0 mi WNW 10.4 mph - N/A   Clear
5:55 PM 11.5 °F -2.7 °F -0.8 °F 58% 30.06 in 10.0 mi WNW 11.5 mph - N/A   Clear
6:15 PM 11.3 °F -2.2 °F -1.5 °F 57% 30.06 in 10.0 mi WNW 10.4 mph - N/A   Clear
6:35 PM 10.9 °F 0.2 °F -1.7 °F 57% 30.07 in 10.0 mi WNW 6.9 mph - N/A   Clear
6:55 PM 9.5 °F -0.3 °F -1.8 °F 60% 30.09 in 10.0 mi West 5.8 mph - N/A   Clear
7:15 PM 8.6 °F -1.3 °F -2.0 °F 62% 30.11 in 10.0 mi West 5.8 mph - N/A   Clear
7:35 PM 7.7 °F -4.8 °F -2.0 °F 65% 30.11 in 10.0 mi West 8.1 mph - N/A   Clear
7:55 PM 7.5 °F -5.0 °F -1.8 °F 66% 30.11 in 10.0 mi West 8.1 mph - N/A   Clear
8:15 PM 7.3 °F -5.2 °F -2.2 °F 65% 30.12 in 10.0 mi West 8.1 mph - N/A   Clear
8:35 PM 6.4 °F -7.3 °F -2.2 °F 68% 30.13 in 10.0 mi West 9.2 mph - N/A   Clear
8:55 PM 7.0 °F -5.7 °F -2.4 °F 66% 30.14 in 10.0 mi West 8.1 mph - N/A   Clear
9:15 PM 5.9 °F -5.8 °F -3.3 °F 66% 30.14 in 10.0 mi West 6.9 mph - N/A   Clear
9:35 PM 5.4 °F -6.5 °F -3.5 °F 67% 30.15 in 10.0 mi West 6.9 mph - N/A   Clear
9:55 PM 5.0 °F -6.9 °F -3.6 °F 68% 30.15 in 10.0 mi West 6.9 mph - N/A   Clear
10:15 PM 4.3 °F -9.0 °F -4.0 °F 69% 30.17 in 10.0 mi WNW 8.1 mph - N/A   Clear
10:35 PM 4.5 °F -8.7 °F -4.5 °F 66% 30.17 in 10.0 mi WNW 8.1 mph - N/A   Clear
10:55 PM 4.1 °F -9.2 °F -5.4 °F 65% 30.18 in 10.0 mi WNW 8.1 mph - N/A   Clear
11:15 PM 3.9 °F -10.4 °F -5.8 °F 64% 30.18 in 10.0 mi WNW 9.2 mph - N/A   Clear
11:35 PM 4.1 °F -11.1 °F -7.6 °F 58% 30.18 in 10.0 mi WNW 10.4 mph - N/A   Clear
11:55 PM 3.6 °F -13.4 °F -7.8 °F 59% 30.18 in 10.0 mi WNW 12.7 mph - N/A   Clear